Regional Weather Roundup
Issued by NWS State College, PA

Home | Current Version | Previous Version | Graphics & Text | Print | Product List | Glossary On
Versions: 1 2 3 4 5 6 7 8 9 10 11 12 13 14 15 16 17 18 19 20 21 22 23 24 25 26 27 28 29 30 31 32 33 34 35 36 37 38 39 40 41 42 43 44 45 46 47 48 49 50
000
ASUS41 KCTP 010403
RWRCTP

REGIONAL WEATHER ROUNDUP
NATIONAL WEATHER SERVICE STATE COLLEGE PA
1100 PM EST SAT FEB 28 2015

Note: "fair" indicates few or no clouds below 12,000 feet with no
significant weather and/or obstructions to visibility.

* = STATION THAT DOES NOT REPORT PRECIPITATION /E.G. RAIN...SNOW...ETC/
    THUNDER OR FOG.

PAZ002>004-007>009-013>016-020>023-029>032-010500-
WESTERN PENNSYLVANIA

CITY           SKY/WX    TMP DP  RH WIND       PRES   REMARKS
ERIE           MOCLDY     8   1  73 CALM      30.58F
MEADVILLE        N/A     18  -5  36 CALM      30.51F
FRANKLIN*      MOCLDY    12  -4  48 CALM      30.52F
NEW CASTLE     FAIR      19  -2  39 CALM      30.54F
BEAVER COUNTY  NOT AVBL
BUTLER*        MOCLDY    16   0  48 E6        30.52F WCI   7
PITTSBURGH INT CLOUDY    21   0  39 E3        30.51F
PITTSBURGH     PTCLDY    22  -5  30 E5        30.49F
INDIANA*       CLEAR     23   1  39 SE8       30.55F WCI  14
LATROBE        PTCLDY    25   5  42 SE8       30.53F
WASHINGTON CO* MOCLDY    18   9  68 CALM      30.52F
$$

PAZ004>006-010>012-017>019-024>028-033>037-041-042-045-046-049>053-010500-
CENTRAL PENNSYLVANIA

CITY           SKY/WX    TMP DP  RH WIND       PRES   REMARKS
BRADFORD       FAIR       6  -8  52 SE5       30.49F WCI  -3
DUBOIS         PTCLDY    16  -5  39 SE10      30.50F WCI   4
CLEARFIELD     PTCLDY    11  -5  48 N6        30.57F WCI   1
JOHNSTOWN      PTCLDY    17   0  47 SE9       30.48F WCI   6
ALTOONA        CLEAR     19  -1  41 S5        30.59F WCI  12
STATE COLLEGE  PTCLDY    17  -1  44 W3        30.62F
WILLIAMSPORT   CLEAR     13   2  61 CALM      30.70F
SELINSGROVE    CLEAR     10   4  76 CALM      30.71F
FT INDIANTOWN  CLEAR     10   2  71 NE2       30.72F
CAPITAL CITY   CLEAR     16   5  62 CALM      30.72F
HARRISBURG     CLEAR     15   6  67 E5        30.72F WCI   8
YORK           FAIR       8   3  80 CALM      30.70F
$$

PAZ038>040-043-044-047-048-054-055-060>062-067>071-010500-
EASTERN PENNSYLVANIA

CITY           SKY/WX    TMP DP  RH WIND       PRES   REMARKS
SCRANTON       CLEAR     13  -2  51 E7        30.66F WCI   3
MOUNT POCONO   FAIR       0  -6  76 NW3       30.59F
ALLENTOWN      CLEAR     13  -1  54 CALM      30.73F
QUAKERTOWN*    CLEAR      9   1  72 CALM      30.73F
READING        CLEAR     15   6  67 N3        30.72F
LANCASTER      CLEAR     16   3  56 E3        30.72F
COATESVILLE    CLEAR     21   1  42 CALM      30.71F
POTTSTOWN      CLEAR     15   4  61 CALM      30.75F
BLUE BELL      CLEAR     19  10  68 CALM      30.74F
DOYLESTOWN     CLEAR     14   4  64 CALM      30.72F
WILLOW GROVE   NOT AVBL
NORTH PHILA    CLEAR     22   4  46 CALM      30.77F
PHILADELPHIA   CLEAR     23   4  44 W6        30.77F
$$



USA.gov is the U.S. government's official web portal to all federal, state and local government web resources and services.